Weather History for Cut Bank, MT

Change the Weather History Date:

Tuesday, April 2, 2013

  Actual Average Record
Temperature  
Mean Temperature 46 °F 37 °F  
Max Temperature 68 °F 49 °F 75 °F (1992)
Min Temperature 24 °F 26 °F -25 °F (1935)
Degree Days  
Heating Degree Days 19 28  
Month to date heating degree days 46 56  
Since 1 July heating degree days 6840 7154  
Cooling Degree Days 0 0  
Month to date cooling degree days 0 0  
Year to date cooling degree days 0 0  
Moisture  
Dew Point 26 °F    
Average Humidity 52    
Maximum Humidity 81    
Minimum Humidity 22    
Precipitation  
Precipitation 0.00 in 0.02 in 0.67 in (1946)
Month to date precipitation 0.00 0.04  
Year to date precipitation 1.30 0.95  
Snow  
Snow 0.00 in - - ()
Snow Depth 0.00 in    
Sea Level Pressure  
Sea Level Pressure 29.96 in    
Wind  
Wind Speed 12 mph (SW)    
Max Wind Speed 31 mph    
Max Gust Speed 37 mph    
Visibility 10 miles    
Events      
T = Trace of Precipitation, MM = Missing Value Source: NWS Daily Summary

Daily Weather History Graph

Daily Weather History Graph

Search for Another Location

Airport:

Trip Planner

Search our weather history database for the weather conditions in past years. The results will help you decide how hot, cold, wet, or windy it might be!

Date:

Astronomy

Apr. 02, 2013 Rise Set
Actual Time 7:04 AM MDT 8:02 PM MDT
Civil Twilight 6:32 AM MDT 8:34 PM MDT
Nautical Twilight 5:54 AM MDT 9:12 PM MDT
Astronomical Twilight 5:13 AM MDT 9:53 PM MDT
Moon 2:30 AM MDT (4/2) 11:40 AM MDT (4/2)
Length of Visible Light 14h 01m
Length of Day
12h 57m
Waning Gibbous, 55% of the Moon is Illuminated
Apr 2
Waning Gibbous
Apr 2
Last Quarter
Apr 10
New
Apr 18
First Quarter
Apr 25
Full

Hourly Weather History & Observations

Time (MDT) Temp. Windchill Dew Point Humidity Pressure Visibility Wind Dir Wind Speed Gust Speed Precip Events Conditions
12:56 AM 30.9 °F 26.2 °F 19.9 °F 64% 30.06 in 10.0 mi SE 4.6 mph - N/A   Clear
1:56 AM 28.0 °F 22.8 °F 19.9 °F 72% 30.06 in 10.0 mi East 4.6 mph - N/A   Clear
2:56 AM 27.0 °F - 19.9 °F 75% 30.04 in 10.0 mi Calm Calm - N/A   Clear
3:56 AM 26.1 °F - 19.0 °F 75% 30.04 in 10.0 mi Calm Calm - N/A   Clear
4:56 AM 27.0 °F - 19.0 °F 72% 30.02 in 10.0 mi Calm Calm - N/A   Clear
5:56 AM 25.0 °F - 19.0 °F 78% 30.03 in - Calm Calm - N/A   Clear
6:56 AM 26.1 °F - 19.9 °F 78% 30.02 in - Calm Calm - N/A   Clear
7:56 AM 26.1 °F - 21.0 °F 81% 30.04 in 10.0 mi Calm Calm - N/A   Clear
8:56 AM 30.9 °F 26.2 °F 21.9 °F 69% 30.04 in 10.0 mi SSE 4.6 mph - N/A   Clear
9:56 AM 37.9 °F 33.5 °F 24.1 °F 57% 30.01 in 10.0 mi SSE 5.8 mph - N/A   Clear
10:56 AM 45.0 °F 40.6 °F 25.0 °F 46% 29.99 in 10.0 mi SE 8.1 mph - N/A   Clear
11:56 AM 53.1 °F - 27.0 °F 37% 29.97 in 10.0 mi SE 5.8 mph - N/A   Clear
12:56 PM 63.0 °F - 28.9 °F 28% 29.92 in 10.0 mi Variable 3.5 mph - N/A   Clear
1:35 PM 66.2 °F - 26.6 °F 23% 29.90 in 10.0 mi West 24.2 mph 31.1 mph N/A   Partly Cloudy
1:56 PM 66.9 °F - 26.1 °F 21% 29.90 in 10.0 mi West 26.5 mph 33.4 mph N/A   Clear
2:56 PM 66.0 °F - 27.0 °F 23% 29.90 in 10.0 mi West 19.6 mph 32.2 mph N/A   Clear
3:56 PM 64.9 °F - 28.0 °F 25% 29.89 in 10.0 mi WSW 26.5 mph 35.7 mph N/A   Clear
4:56 PM 61.0 °F - 28.9 °F 30% 29.90 in 10.0 mi West 23.0 mph 28.8 mph N/A   Clear
5:56 PM 61.0 °F - 30.9 °F 32% 29.90 in 10.0 mi WSW 23.0 mph - N/A   Clear
6:56 PM 59.0 °F - 32.0 °F 36% 29.90 in 10.0 mi WSW 17.3 mph - N/A   Clear
7:56 PM 55.0 °F - 32.0 °F 42% 29.90 in 10.0 mi WSW 11.5 mph - N/A   Clear
8:56 PM 52.0 °F - 32.0 °F 47% 29.90 in 10.0 mi WSW 17.3 mph - N/A   Clear
9:56 PM 52.0 °F - 32.0 °F 47% 29.88 in 10.0 mi WSW 24.2 mph 33.4 mph N/A   Clear
10:56 PM 48.9 °F - 33.1 °F 54% 29.88 in 10.0 mi WSW 17.3 mph - N/A   Clear
11:56 PM 48.9 °F - 32.0 °F 52% 29.86 in 10.0 mi West 21.9 mph 32.2 mph N/A   Clear